Tracking 19709 objects as of 21-Jun-2019
HD Live streaming from Space Station
objects crossing your sky now

FENGYUN 1C DEB

Track FENGYUN 1C DEB now!
10-day predictions


NORAD ID: 31626
Int'l Code: 1999-025CAG
Perigee: 774.9 km
Apogee: 820.4 km
Inclination: 101.3 °
Period: 100.7 minutes
Semi major axis: 7168 km
RCS: 0.0152 m2 (small)
Launch date: May 10, 1999
Source: People's Republic of China (PRC)
Launch site: Taiyaun Space Center, China (TSC)

Note: This is SATELLITE DEBRIS
aabbcc
Your satellite tracking list
Your tracking list is empty




NASA's NSSDC Master Catalog

Two Line Element Set (TLE):
1 31626U 99025CAG 19170.76004207  .00000929  00000-0  38168-3 0  9996
2 31626 101.3068  22.0825 0031742  34.2064 326.1146 14.30372706630302
Source of the keplerian elements: AFSPC